Sterling, IL

7:24 AM CST on November 18, 2019 (GMT -0600)
Whiteside County-Bittorf

Weather History for KSQI - September, 2019

Change the Weather History Date:

Tuesday, September 10, 2019

  Actual Average Record
Temperature  
Mean Temperature 79 °F -  
Max Temperature 87 °F 76 °F 98 °F (2013)
Min Temperature 71 °F 52 °F 42 °F (1999)
Cooling Degree Days 14    
Growing Degree Days 29 (Base 50)    
Moisture  
Dew Point 73 °F    
Average Humidity 83    
Maximum Humidity 100    
Minimum Humidity 63    
Precipitation  
Precipitation 0.00 in - - ()
Sea Level Pressure  
Sea Level Pressure 29.64 in    
Wind  
Wind Speed 5 mph ()    
Max Wind Speed 14 mph    
Max Gust Speed 20 mph    
Visibility 10.0 miles    
Events      
Averages and records for this station are not official NWS values.
T = Trace of Precipitation, MM = Missing Value Source: Averaged Metar Reports

Daily Weather History Graph

Daily Weather History Graph

Search for Another Location

Airport or City:

Astronomy

Sep. 10, 2019 Rise Set
Actual Time 6:33 AM CDT 7:17 PM CDT
Civil Twilight 6:05 AM CDT 7:45 PM CDT
Nautical Twilight 5:32 AM CDT 8:18 PM CDT
Astronomical Twilight 4:57 AM CDT 8:52 PM CDT
Moon 5:56 PM CDT (9/10) 2:55 AM CDT (9/10)
Length of Visible Light 13h 39m
Length of Day
12h 43m
Waxing Gibbous, 89% of the Moon is Illuminated
Sep 10
Waxing Gibbous
Sep 13
Full
Sep 21
Last Quarter
Sep 28
New
Oct 5
First Quarter

Hourly Weather History & Observations

Time (CDT) Temp. Heat Index Dew Point Humidity Pressure Visibility Wind Dir Wind Speed Gust Speed Precip Events Conditions
12:56 AM 75.0 °F - 72.0 °F 90% 29.62 in 10.0 mi Variable 5.8 mph - N/A   Clear
1:56 AM 75.0 °F - 72.0 °F 90% 29.61 in 10.0 mi Variable 3.5 mph - N/A   Clear
2:56 AM 75.9 °F - 72.0 °F 87% 29.61 in 10.0 mi Variable 3.5 mph - N/A   Clear
3:56 AM 75.9 °F - 72.0 °F 87% 29.61 in 10.0 mi Variable 4.6 mph - N/A   Partly Cloudy
4:56 AM 75.9 °F - 72.0 °F 87% 29.60 in 10.0 mi Variable 3.5 mph - N/A   Clear
5:56 AM 75.9 °F - 71.1 °F 85% 29.61 in 10.0 mi Variable 4.6 mph - N/A   Clear
6:56 AM 73.9 °F - 71.1 °F 91% 29.63 in 10.0 mi Variable 4.6 mph - N/A   Clear
7:56 AM 75.0 °F - 72.0 °F 90% 29.63 in 10.0 mi North - - N/A   Clear
8:56 AM 78.1 °F - 73.0 °F 84% 29.64 in 10.0 mi Variable 6.9 mph - N/A   Clear
9:56 AM 82.0 °F 87.9 °F 73.9 °F 76% 29.65 in 10.0 mi SW 11.5 mph - N/A   Clear
10:56 AM 82.9 °F 89.4 °F 73.9 °F 74% 29.65 in 10.0 mi WSW 10.4 mph 17.3 mph N/A   Clear
11:56 AM 84.9 °F 92.1 °F 73.9 °F 69% 29.64 in 10.0 mi Variable 6.9 mph 18.4 mph N/A   Partly Cloudy
12:56 PM 84.9 °F 91.4 °F 73.0 °F 67% 29.64 in 10.0 mi WSW 13.8 mph - N/A   Clear
1:56 PM 87.1 °F 94.5 °F 73.0 °F 63% 29.64 in 10.0 mi WSW 12.7 mph 19.6 mph N/A   Partly Cloudy
2:56 PM 84.9 °F 90.7 °F 72.0 °F 65% 29.64 in 10.0 mi West 12.7 mph - N/A   Clear
3:56 PM 84.0 °F 90.2 °F 73.0 °F 69% 29.65 in 10.0 mi West 6.9 mph - N/A   Clear
4:56 PM 84.0 °F 90.2 °F 73.0 °F 69% 29.65 in 10.0 mi West 3.5 mph - N/A   Clear
5:56 PM 81.0 °F 86.7 °F 75.0 °F 82% 29.65 in 10.0 mi Calm Calm - N/A   Clear
6:56 PM 77.0 °F - 73.0 °F 88% 29.65 in 10.0 mi Calm Calm - N/A   Clear
7:56 PM 73.9 °F - 71.1 °F 91% 29.65 in 10.0 mi Calm Calm - N/A   Clear
8:56 PM 72.0 °F - 71.1 °F 97% 29.66 in 10.0 mi SE 3.5 mph - N/A   Clear
9:56 PM 71.1 °F - 71.1 °F 100% 29.67 in 9.0 mi Calm Calm - N/A   Clear
10:56 PM 75.9 °F - 73.0 °F 91% 29.67 in 10.0 mi Calm Calm - N/A   Clear
11:56 PM 75.9 °F - 73.0 °F 91% 29.70 in 10.0 mi Calm Calm - N/A   Mostly Cloudy